Weather History for KVWU - December, 2011

Change the Weather History Date:

Friday, December 23, 2011

  Actual Average (KBDE) Record (KBDE)
Temperature  
Mean Temperature 22 °F -  
Max Temperature 26 °F 15 °F 41 °F (1936)
Min Temperature 19 °F -3 °F -30 °F (1949)
Degree Days  
Heating Degree Days 42    
Moisture  
Dew Point 20 °F    
Average Humidity 85    
Maximum Humidity 93    
Minimum Humidity 74    
Precipitation  
Precipitation 0.01 in - - ()
Sea Level Pressure  
Sea Level Pressure 29.93 in    
Wind  
Wind Speed 7 mph (WSW)    
Max Wind Speed 10 mph    
Max Gust Speed 16 mph    
Visibility 9 miles    
Events Snow    
Averages and records for this station are not official NWS values.
T = Trace of Precipitation, MM = Missing Value Source: NWS Daily Summary

Daily Weather History Graph

Daily Weather History Graph

Search for Another Location

Airport or City:

Trip Planner

Search our weather history database for the weather conditions in past years. The results will help you decide how hot, cold, wet, or windy it might be!

Date:

Astronomy

Dec. 23, 2011 Rise Set
Actual Time 8:06 AM CST 4:27 PM CST
Civil Twilight 7:30 AM CST 5:04 PM CST
Nautical Twilight 6:50 AM CST 5:44 PM CST
Astronomical Twilight 6:12 AM CST 6:22 PM CST
Moon 6:57 AM CST (12/23) 3:36 PM CST (12/23)
Length of Visible Light 9h 34m
Length of Day
8h 21m
Waning Crescent, 1% of the Moon is Illuminated
Dec 23
Waning Crescent
Dec 24
New
Jan 1
First Quarter
Jan 9
Full
Jan 16
Last Quarter

Hourly Weather History & Observations

Time (CST) Temp. Windchill Dew Point Humidity Pressure Visibility Wind Dir Wind Speed Gust Speed Precip Events Conditions
12:07 AM 19.4 °F 11.5 °F 15.8 °F 86% 30.02 in 10.0 mi South 5.8 mph - N/A   Mostly Cloudy
12:27 AM 21.2 °F 13.6 °F 15.8 °F 80% 30.01 in 10.0 mi South 5.8 mph - N/A   Mostly Cloudy
12:47 AM 21.2 °F 13.6 °F 15.8 °F 80% 29.99 in 10.0 mi SSE 5.8 mph - N/A   Overcast
1:07 AM 21.2 °F 12.6 °F 17.6 °F 86% 29.98 in 10.0 mi SSE 6.9 mph - N/A   Overcast
1:27 AM 21.2 °F 12.6 °F 17.6 °F 86% 29.96 in 10.0 mi SSE 6.9 mph - N/A   Overcast
2:27 AM 24.8 °F 16.1 °F 17.6 °F 74% 29.94 in 10.0 mi SSE 8.1 mph - N/A   Overcast
2:47 AM 23.0 °F 14.7 °F 17.6 °F 80% 29.92 in 10.0 mi SSE 6.9 mph - N/A   Overcast
3:07 AM 24.8 °F 17.9 °F 17.6 °F 74% 29.91 in 10.0 mi SSE 5.8 mph - N/A   Overcast
3:27 AM 24.8 °F 16.9 °F 17.6 °F 74% 29.89 in 10.0 mi SSE 6.9 mph - N/A Snow Light Snow
4:07 AM 24.8 °F 16.1 °F 17.6 °F 74% 29.86 in 10.0 mi SSE 8.1 mph - N/A   Overcast
4:47 AM 24.8 °F 16.1 °F 17.6 °F 74% 29.84 in 10.0 mi South 8.1 mph - N/A   Overcast
5:07 AM 24.8 °F 16.1 °F 17.6 °F 74% 29.83 in 10.0 mi South 8.1 mph - N/A   Overcast
5:27 AM 24.8 °F 15.3 °F 19.4 °F 80% 29.83 in 4.0 mi South 9.2 mph - N/A Snow Light Snow
5:47 AM 24.8 °F 16.1 °F 19.4 °F 80% 29.82 in 1.8 mi South 8.1 mph - N/A Snow Light Snow
6:07 AM 24.8 °F 19.1 °F 21.2 °F 86% 29.83 in 1.0 mi SSW 4.6 mph - N/A Snow Snow
6:27 AM 24.8 °F 17.9 °F 21.2 °F 86% 29.82 in 1.0 mi South 5.8 mph - N/A Snow Light Snow
6:47 AM 24.8 °F 17.9 °F 21.2 °F 86% 29.81 in 1.2 mi South 5.8 mph - 0.01 in Snow Light Snow
7:47 AM 24.8 °F 19.1 °F 21.2 °F 86% 29.80 in 3.0 mi SSW 4.6 mph - N/A Snow Light Snow
8:07 AM 24.8 °F 17.9 °F 21.2 °F 86% 29.80 in 10.0 mi SSW 5.8 mph - N/A Snow Light Snow
8:27 AM 24.8 °F 16.1 °F 23.0 °F 93% 29.80 in 10.0 mi SSW 8.1 mph - N/A Snow Light Snow
8:47 AM 24.8 °F 16.1 °F 23.0 °F 93% 29.81 in 10.0 mi SW 8.1 mph - N/A   Overcast
9:07 AM 24.8 °F 15.3 °F 23.0 °F 93% 29.81 in 10.0 mi SW 9.2 mph - N/A   Overcast
9:27 AM 26.6 °F 17.5 °F 23.0 °F 86% 29.82 in 10.0 mi SW 9.2 mph - N/A   Overcast
9:47 AM 26.6 °F 17.5 °F 24.8 °F 93% 29.83 in 10.0 mi WSW 9.2 mph - N/A   Overcast
10:07 AM 26.6 °F 18.2 °F 24.8 °F 93% 29.84 in 10.0 mi WSW 8.1 mph - N/A   Overcast
10:27 AM 26.6 °F 18.2 °F 23.0 °F 86% 29.85 in 10.0 mi West 8.1 mph - N/A   Overcast
10:47 AM 26.6 °F 17.5 °F 24.8 °F 93% 29.85 in 10.0 mi West 9.2 mph - N/A   Overcast
11:07 AM 26.6 °F 18.2 °F 23.0 °F 86% 29.86 in 10.0 mi West 8.1 mph - N/A   Overcast
11:47 AM 26.6 °F 18.2 °F 23.0 °F 86% 29.87 in 10.0 mi West 8.1 mph - N/A   Overcast
12:47 PM 26.6 °F 18.2 °F 23.0 °F 86% 29.88 in 10.0 mi West 8.1 mph - N/A   Overcast
1:07 PM 26.6 °F 16.8 °F 23.0 °F 86% 29.89 in 10.0 mi WNW 10.4 mph 16.1 mph N/A   Overcast
1:27 PM 26.6 °F 16.8 °F 21.2 °F 80% 29.90 in 10.0 mi West 10.4 mph - N/A   Overcast
1:47 PM 24.8 °F 15.3 °F 21.2 °F 86% 29.91 in 10.0 mi West 9.2 mph - N/A   Overcast
2:07 PM 24.8 °F 15.3 °F 21.2 °F 86% 29.92 in 10.0 mi West 9.2 mph - N/A   Overcast
2:27 PM 24.8 °F 15.3 °F 21.2 °F 86% 29.94 in 10.0 mi West 9.2 mph - N/A   Overcast
2:47 PM 24.8 °F 15.3 °F 21.2 °F 86% 29.95 in 10.0 mi West 9.2 mph - N/A   Overcast
3:07 PM 24.8 °F 17.9 °F 21.2 °F 86% 29.96 in 10.0 mi NNW 5.8 mph - N/A   Overcast
3:27 PM 24.8 °F 17.9 °F 21.2 °F 86% 29.97 in 10.0 mi NNW 5.8 mph - N/A   Overcast
3:47 PM 24.8 °F 16.9 °F 19.4 °F 80% 29.99 in 10.0 mi NW 6.9 mph - N/A   Overcast
4:07 PM 24.8 °F 16.9 °F 19.4 °F 80% 30.00 in 10.0 mi NW 6.9 mph - N/A   Overcast
4:27 PM 24.8 °F 17.9 °F 21.2 °F 86% 30.00 in 10.0 mi NW 5.8 mph - N/A   Overcast
4:47 PM 23.0 °F 15.8 °F 19.4 °F 86% 30.01 in 10.0 mi NW 5.8 mph - N/A   Overcast
5:07 PM 23.0 °F 17.0 °F 19.4 °F 86% 30.01 in 10.0 mi NW 4.6 mph - N/A   Overcast
5:27 PM 23.0 °F 15.8 °F 19.4 °F 86% 30.02 in 10.0 mi NW 5.8 mph - N/A   Overcast
5:47 PM 23.0 °F 15.8 °F 19.4 °F 86% 30.03 in 10.0 mi NW 5.8 mph - N/A   Overcast
6:07 PM 23.0 °F 15.8 °F 19.4 °F 86% 30.03 in 10.0 mi NW 5.8 mph - N/A   Overcast
6:27 PM 23.0 °F 14.7 °F 19.4 °F 86% 30.04 in 10.0 mi West 6.9 mph - N/A   Overcast
6:47 PM 23.0 °F 15.8 °F 19.4 °F 86% 30.04 in 10.0 mi West 5.8 mph - N/A   Overcast
7:07 PM 23.0 °F 18.4 °F 19.4 °F 86% 30.05 in 10.0 mi West 3.5 mph - N/A   Overcast
7:27 PM 23.0 °F - 19.4 °F 86% 30.04 in 10.0 mi Calm Calm - N/A   Overcast
7:48 PM 23.0 °F - 19.4 °F 86% 30.05 in 10.0 mi Calm Calm - N/A   Overcast
8:07 PM 21.2 °F 14.9 °F 19.4 °F 93% 30.04 in 10.0 mi West 4.6 mph - N/A   Overcast
8:27 PM 21.2 °F - 19.4 °F 93% 30.04 in 10.0 mi Calm Calm - N/A   Overcast
8:47 PM 21.2 °F 16.4 °F 19.4 °F 93% 30.06 in 10.0 mi West 3.5 mph - N/A   Overcast
9:07 PM 21.2 °F - 19.4 °F 93% 30.05 in 10.0 mi Calm Calm - N/A   Overcast
9:27 PM 21.2 °F - 19.4 °F 93% 30.04 in 10.0 mi Calm Calm - N/A   Overcast
9:47 PM 21.2 °F - 19.4 °F 93% 30.03 in 10.0 mi Calm Calm - N/A   Overcast
10:07 PM 21.2 °F - 19.4 °F 93% 30.05 in 10.0 mi Calm Calm - N/A   Overcast
10:27 PM 21.2 °F 16.4 °F 19.4 °F 93% 30.06 in 10.0 mi SSW 3.5 mph - N/A   Overcast
10:47 PM 21.2 °F 12.6 °F 19.4 °F 93% 30.07 in 10.0 mi SSW 6.9 mph - N/A   Overcast
11:07 PM 21.2 °F 12.6 °F 19.4 °F 93% 30.07 in 10.0 mi SSW 6.9 mph - N/A   Overcast
11:27 PM 21.2 °F - 19.4 °F 93% 30.05 in 10.0 mi Calm Calm - N/A   Overcast
11:47 PM 21.2 °F 16.4 °F 19.4 °F 93% 30.04 in 10.0 mi South 3.5 mph - N/A   Overcast